Flag for Brazil Weather past 2 weeks in Campo Grande, Mato Grosso Do Sul, Brazil

Now
72 °F

Passing clouds.


Feels Like: 67 °F
Forecast: 71 / 86 °F
Wind: 6 mph from Northeast

Location: Campo Grande Aeroporto

Current Time: Dec 20, 2014 at 3:12:55 AM

Latest Report: Dec 20, 2014 at 2:00 AM


Visibility: N/A

Pressure: 29.80 "Hg

Humidity: 94%

Dew point: 70 °F

Location of Campo GrandeLocation

Historic Weather in Campo Grande — Graph

°F

Campo Grande temperature yesterday

Maximum temperature yesterday: 86 °F (at 2:00 PM)
Minimum temperature yesterday: 34 °F (at 6:00 PM)
Average temperature yesterday: 74 °F

Past Weeks' High & Low Weather Summary

 TemperatureHumidityPressure
High90 °F (Dec 15, 1:00 PM)100% (Dec 12, 3:00 AM)29.98 "Hg (Dec 12, 3:00 AM)
Low34 °F (Dec 12, 6:00 AM)18% (Dec 18, 1:00 PM)29.77 "Hg (Dec 9, 4:00 PM)
Average76 °F81%29.88 "Hg
* Reported Dec 5 2:00 AM — Dec 20 2:00 AM, Campo Grande, Weather by CustomWeather, © 2014

Note: Actual official high and low records may vary slightly from our data, if they occured in-between our weather recording intervals... More about our weather records

Advertising

Campo Grande weather history for previous 24 hours

 ConditionsComfort  
Time TempWeatherWind HumidityBarometerVisibility
2:00 AM
Dec 20
72 °FPassing clouds.6 mph94%29.80 "HgN/A
1:00 AM72 °FPassing clouds.8 mph94%29.80 "HgN/A
12:00 AM73 °FPassing clouds.8 mph89%29.83 "HgN/A
11:00 PM
Dec 19
72 °FPassing clouds.5 mph94%29.83 "HgN/A
10:00 PM72 °FPassing clouds.3 mph94%29.80 "HgN/A
9:00 PM72 °FThundershowers. Passing clouds.5 mph88%N/AN/A
8:00 PM72 °FThundershowers. Passing clouds.6 mph94%N/AN/A
7:00 PM70 °FThunderstorms. Scattered clouds.7 mph100%29.77 "HgN/A
6:00 PM34 °FThunderstorms. Broken clouds.6 mph100%29.83 "Hg5 mi
5:00 PM81 °FThunderstorms. Partly sunny.14 mph74%N/AN/A
4:00 PM86 °FThundershowers. Partly sunny.8 mph59%29.77 "HgN/A
3:00 PM84 °FThundershowers. Partly sunny.9 mphN/AN/AN/A
2:00 PM86 °FScattered clouds.9 mph66%29.80 "HgN/A
1:00 PM84 °FPartly sunny.8 mph66%29.83 "HgN/A
12:00 PM82 °FPartly sunny.7 mph70%29.86 "HgN/A
11:00 AM81 °FPartly sunny.7 mph74%29.86 "HgN/A
10:00 AM79 °FScattered clouds.9 mph79%29.86 "HgN/A
9:00 AM79 °FScattered clouds.7 mph74%29.86 "HgN/A
8:00 AM73 °FScattered clouds.5 mph89%29.83 "HgN/A
7:00 AM73 °FScattered clouds.2 mph83%29.83 "HgN/A
6:00 AM70 °FPassing clouds.5 mph94%29.83 "HgN/A
5:00 AM70 °FPassing clouds.5 mph94%29.83 "HgN/A
4:00 AM72 °FPassing clouds.6 mph88%29.80 "HgN/A
3:00 AM72 °FPassing clouds.7 mph88%29.83 "HgN/A
Weather by CustomWeather, © 2014

See weather overviewHow to use our weather pages